Regional Weather Roundup
Issued by NWS

Home | Current Version | Previous Version | Graphics & Text | Print | Product List | Glossary On
Versions: 1 2 3 4 5 6 7 8 9 10 11 12 13 14 15 16 17 18 19 20 21 22 23 24 25 26 27 28 29 30 31 32 33 34 35 36 37 38 39 40 41 42 43 44 45 46 47 48 49 50
000
ASUS44 KMEG 302310
RWRTN
TENNESSEE HOURLY STATE WEATHER ROUNDUP
NATIONAL WEATHER SERVICE MEMPHIS TN
600 PM CDT TUE JUN 30 2015

TNZ002-004-019-021-049-052-054-088>092-010000-
WEST TENNESSEE

CITY           SKY/WX    TMP DP  RH WIND       PRES   REMARKS
MEMPHIS INTL   CLOUDY    85  73  67 SW7       29.92S HX  91
NWS MEMPHIS      N/A     85 N/A N/A MISG        N/A
JACKSON        SUNNY     84  69  60 SW7       29.91S
DYERSBURG        N/A    N/A N/A N/A MISG        N/A
PARIS          SUNNY     81  68  65 SW6       29.90S
LEXINGTON      SUNNY     81  72  74 W3        29.90F
$$

TNZ008-025-027-028-033-062-065-066-010000-
NORTH MIDDLE TENNESSEE

CITY           SKY/WX    TMP DP  RH WIND       PRES   REMARKS
NASHVILLE      CLOUDY    83  68  60 W8        29.89F
CLARKSVILLE    SUNNY     82  70  66 W7        29.88S
SMYRNA         SUNNY     84  70  63 W10       29.89F
COOKEVILLE     MOSUNNY   82  73  74 SW5       29.90R
CROSSVILLE     PTSUNNY   76  67  73 VRB6      29.95F
$$

TNZ061-075-076-078-094-096-097-010000-
SOUTH MIDDLE TENNESSEE

CITY           SKY/WX    TMP DP  RH WIND       PRES   REMARKS
FAYETTEVILLE   MOSUNNY   79  68  69 W6        29.93S
TULLAHOMA      MOSUNNY   79  66  65 W6        29.94S
WINCHESTER     MOSUNNY   81  70  69 W7        29.93S
MCMINNVILLE    SUNNY     81  68  65 W10       29.91S
COLUMBIA       MOSUNNY   82  72  69 W8        29.89F
SHELBYVILLE    SUNNY     82  72  69 W7        29.92S
$$

TNZ017-018-042-046-047-010000-
NORTHEAST TENNESSEE

CITY           SKY/WX    TMP DP  RH WIND       PRES   REMARKS
TRI CITIES     CLOUDY    77  62  59 W15       29.91F
ELIZABETHTON   CLEAR     75  63  64 SW9       29.89F
$$

TNZ012-013-036-069-073-074-010000-
CENTRAL EAST TENNESSEE

CITY           SKY/WX    TMP DP  RH WIND       PRES   REMARKS
KNOXVILLE      LGT RAIN  74  67  78 NW3       29.91S
OAK RIDGE      MOSUNNY   75  67  76 CALM      29.93S
GATLINBURG     CLEAR     73  68  83 NW6       29.92R
MORRISTOWN     CLEAR     75  66  73 W8        29.94S
$$

TNZ083-085-099-010000-
SOUTHEAST TENNESSEE

CITY           SKY/WX    TMP DP  RH WIND       PRES   REMARKS
CHATTANOOGA    PTSUNNY   83  68  60 SW10      29.90F
$$

SKY/WX REPORTED AS FAIR MEANS FEW OR NO CLOUDS BELOW
12 THOUSAND FEET.




USA.gov is the U.S. government's official web portal to all federal, state and local government web resources and services.